Location: Croydon
(51.3762°N, 0.0982°W)
Time: 19:48:59
(UTC+01:00)

VELOX 1 - Pass Details

Date: 27 April 2019
Orbit: 629 x 644 km, 98.2° (Epoch: 24 May)

Event Time Altitude Azimuth Distance (km) Brightness Sun altitude
Exits shadow 01:05:05 30° 89° (E) 1,144 ? -24.9°
Maximum altitude 01:05:58 33° 65° (ENE) 1,077 ? -24.9°
Drops below altitude 10° 01:09:54 10° 2° (N) 2,023 ? -24.9°
Sets 01:12:15 0° 352° (N) 2,937 ? -24.9°
